AMX653 MMUN-MGGT

Flight info

Callsign AMX653
Flight time 0h 56m
Altitude 34000
Route ALSUP1C ALSUP UT51 ANEPU DCT RIDEM UG765 AUR DCT
Aircraft B738/M-V/N

Departure

Time 2026-04-26 21:08
Airport Cancún International Airport (MMUN)

Arrival

Time 2026-04-26 22:04
Airport La Aurora International Airport (MGGT)
Time Latitude Longitude Altitude Speed Heading
2026-04-26 20:44 21.03933 -86.87682 25 ft 0 kts 33°
2026-04-26 20:56 21.03922 -86.87689 25 ft 2 kts 32°
2026-04-26 20:57 21.03909 -86.87698 25 ft 2 kts 33°
2026-04-26 20:57 21.03897 -86.87707 25 ft 2 kts 32°
2026-04-26 20:57 21.03887 -86.87714 25 ft 0 kts 33°
2026-04-26 20:57 21.03875 -86.87719 25 ft 2 kts 357°
2026-04-26 20:58 21.03861 -86.87714 25 ft 2 kts 318°
2026-04-26 20:58 21.03857 -86.87708 25 ft 1 kts 297°
2026-04-26 20:58 21.03854 -86.87704 25 ft 0 kts 302°
2026-04-26 21:00 21.03855 -86.87705 25 ft 1 kts 303°
2026-04-26 21:01 21.03877 -86.87740 25 ft 10 kts 303°
2026-04-26 21:01 21.03931 -86.87828 25 ft 14 kts 304°
2026-04-26 21:01 21.03987 -86.87917 25 ft 13 kts 303°
2026-04-26 21:01 21.04036 -86.87994 25 ft 11 kts 303°
2026-04-26 21:02 21.04076 -86.88059 26 ft 9 kts 303°
2026-04-26 21:02 21.04109 -86.88112 27 ft 8 kts 303°
2026-04-26 21:02 21.04151 -86.88179 28 ft 13 kts 303°
2026-04-26 21:02 21.04218 -86.88287 30 ft 21 kts 303°
2026-04-26 21:03 21.04313 -86.88439 33 ft 25 kts 303°
2026-04-26 21:03 21.04407 -86.88590 35 ft 23 kts 305°
2026-04-26 21:03 21.04495 -86.88728 36 ft 21 kts 303°
2026-04-26 21:03 21.04575 -86.88859 36 ft 20 kts 303°
2026-04-26 21:04 21.04640 -86.88981 37 ft 16 kts 269°
2026-04-26 21:04 21.04625 -86.89014 36 ft 0 kts 226°
2026-04-26 21:05 21.04616 -86.89023 36 ft 3 kts 222°
2026-04-26 21:05 21.04561 -86.89068 35 ft 17 kts 208°
2026-04-26 21:05 21.04501 -86.89046 34 ft 0 kts 130°
2026-04-26 21:07 21.04485 -86.89024 34 ft 23 kts 126°
2026-04-26 21:07 21.04241 -86.88635 34 ft 99 kts 124°
2026-04-26 21:07 21.03724 -86.87809 26 ft 165 kts 124°
2026-04-26 21:07 21.03038 -86.86721 593 ft 179 kts 124°
2026-04-26 21:08 21.02361 -86.85624 1455 ft 182 kts 123°
2026-04-26 21:08 21.01604 -86.84492 2179 ft 193 kts 133°
2026-04-26 21:08 21.00518 -86.83629 2893 ft 203 kts 155°
2026-04-26 21:08 20.99133 -86.83218 3625 ft 213 kts 169°
2026-04-26 21:09 20.97664 -86.82946 4435 ft 217 kts 168°
2026-04-26 21:09 20.96166 -86.82617 5092 ft 229 kts 167°
2026-04-26 21:09 20.94545 -86.82227 5640 ft 247 kts 166°
2026-04-26 21:09 20.92821 -86.81807 6201 ft 263 kts 166°
2026-04-26 21:10 20.90958 -86.81432 6729 ft 284 kts 174°
2026-04-26 21:10 20.88942 -86.81540 7556 ft 293 kts 191°
2026-04-26 21:10 20.86979 -86.82042 8475 ft 296 kts 195°
2026-04-26 21:10 20.84966 -86.82630 9339 ft 301 kts 196°
2026-04-26 21:11 20.82914 -86.83199 10140 ft 308 kts 195°
2026-04-26 21:11 20.80821 -86.83743 10927 ft 315 kts 194°
2026-04-26 21:11 20.78681 -86.84279 11659 ft 322 kts 194°
2026-04-26 21:11 20.76482 -86.84823 12419 ft 326 kts 194°
2026-04-26 21:12 20.74243 -86.85377 13137 ft 332 kts 194°
2026-04-26 21:12 20.71996 -86.85934 13905 ft 335 kts 195°
2026-04-26 21:12 20.69707 -86.86500 14667 ft 337 kts 194°
2026-04-26 21:12 20.67407 -86.87070 15358 ft 341 kts 194°
2026-04-26 21:13 20.65090 -86.87644 15909 ft 348 kts 194°
2026-04-26 21:13 20.62664 -86.88246 16206 ft 365 kts 194°
2026-04-26 21:13 20.60151 -86.88868 16707 ft 374 kts 194°
2026-04-26 21:13 20.57606 -86.89498 17359 ft 377 kts 194°
2026-04-26 21:14 20.55031 -86.90134 17945 ft 382 kts 194°
2026-04-26 21:14 20.52433 -86.90739 18592 ft 385 kts 192°
2026-04-26 21:14 20.49763 -86.91167 19119 ft 392 kts 186°
2026-04-26 21:14 20.47006 -86.91305 19774 ft 394 kts 181°
2026-04-26 21:15 20.44254 -86.91292 20284 ft 400 kts 179°
2026-04-26 21:15 20.41462 -86.91230 20831 ft 403 kts 179°
2026-04-26 21:15 20.38641 -86.91164 21396 ft 407 kts 179°
2026-04-26 21:15 20.35815 -86.91109 21929 ft 410 kts 180°
2026-04-26 21:16 20.32924 -86.91065 22412 ft 414 kts 180°
2026-04-26 21:16 20.30030 -86.91027 22904 ft 418 kts 180°
2026-04-26 21:16 20.27095 -86.90995 23464 ft 420 kts 180°
2026-04-26 21:16 20.24169 -86.90966 23967 ft 422 kts 180°
2026-04-26 21:17 20.21233 -86.90939 24420 ft 425 kts 180°
2026-04-26 21:17 20.18270 -86.90912 24942 ft 426 kts 180°
2026-04-26 21:17 20.15302 -86.90884 25509 ft 425 kts 180°
2026-04-26 21:17 20.12338 -86.90855 26196 ft 421 kts 180°
2026-04-26 21:18 20.09457 -86.90828 26811 ft 418 kts 180°
2026-04-26 21:18 20.06545 -86.90801 27386 ft 416 kts 180°
2026-04-26 21:18 20.03643 -86.90780 27971 ft 412 kts 181°
2026-04-26 21:18 20.00804 -86.90778 28511 ft 410 kts 181°
2026-04-26 21:19 19.97948 -86.90788 28998 ft 408 kts 181°
2026-04-26 21:19 19.95096 -86.90799 29437 ft 407 kts 181°
2026-04-26 21:19 19.92261 -86.90810 29835 ft 407 kts 181°
2026-04-26 21:19 19.89454 -86.90820 30248 ft 405 kts 182°
2026-04-26 21:20 19.86635 -86.90829 30581 ft 405 kts 182°
2026-04-26 21:20 19.83812 -86.90837 30918 ft 405 kts 182°
2026-04-26 21:20 19.80996 -86.90845 31226 ft 405 kts 182°
2026-04-26 21:20 19.78174 -86.90852 31576 ft 404 kts 182°
2026-04-26 21:21 19.75344 -86.90859 31935 ft 402 kts 182°
2026-04-26 21:21 19.72547 -86.90865 32258 ft 401 kts 183°
2026-04-26 21:21 19.69756 -86.90984 32528 ft 399 kts 189°
2026-04-26 21:21 19.67044 -86.91433 32846 ft 394 kts 196°
2026-04-26 21:22 19.64425 -86.92226 33129 ft 391 kts 204°
2026-04-26 21:22 19.61913 -86.93364 33384 ft 388 kts 211°
2026-04-26 21:22 19.59610 -86.94803 33684 ft 384 kts 218°
2026-04-26 21:23 19.55551 -86.98463 33875 ft 388 kts 227°
2026-04-26 21:23 19.53584 -87.00444 33875 ft 395 kts 226°
2026-04-26 21:23 19.49373 -87.04335 33864 ft 407 kts 223°
2026-04-26 21:24 19.44920 -87.08058 33865 ft 410 kts 221°
2026-04-26 21:24 19.40355 -87.11707 33862 ft 412 kts 220°
2026-04-26 21:25 19.35731 -87.15344 33861 ft 414 kts 220°
2026-04-26 21:25 19.31088 -87.18973 33859 ft 416 kts 220°
2026-04-26 21:26 19.26427 -87.22605 33859 ft 419 kts 220°
2026-04-26 21:26 19.21694 -87.26289 33854 ft 421 kts 220°
2026-04-26 21:27 19.16957 -87.29973 33849 ft 424 kts 220°
2026-04-26 21:27 19.12205 -87.33665 33853 ft 426 kts 220°
2026-04-26 21:28 19.07401 -87.37392 33854 ft 428 kts 220°
2026-04-26 21:28 19.02610 -87.41109 33854 ft 431 kts 220°
2026-04-26 21:29 18.97763 -87.44867 33853 ft 434 kts 220°
2026-04-26 21:29 18.92871 -87.48656 33851 ft 436 kts 220°
2026-04-26 21:30 18.87949 -87.52466 33856 ft 438 kts 220°
2026-04-26 21:30 18.83036 -87.56265 33858 ft 438 kts 220°
2026-04-26 21:31 18.78093 -87.60085 33862 ft 440 kts 220°
2026-04-26 21:31 18.73168 -87.63889 33860 ft 442 kts 220°
2026-04-26 21:32 18.68168 -87.67748 33859 ft 445 kts 220°
2026-04-26 21:32 18.63168 -87.71603 33859 ft 447 kts 220°
2026-04-26 21:33 18.58141 -87.75476 33848 ft 450 kts 220°
2026-04-26 21:33 18.53075 -87.79376 33840 ft 451 kts 220°
2026-04-26 21:34 18.48002 -87.83278 33840 ft 451 kts 220°
2026-04-26 21:34 18.42940 -87.87170 33837 ft 452 kts 220°
2026-04-26 21:35 18.37857 -87.91074 33839 ft 451 kts 220°
2026-04-26 21:35 18.32787 -87.94955 33838 ft 452 kts 219°
2026-04-26 21:36 18.28442 -87.98116 33840 ft 453 kts 218°
2026-04-26 21:36 18.22344 -88.02431 33839 ft 454 kts 218°
2026-04-26 21:37 18.17103 -88.06145 33841 ft 454 kts 218°
2026-04-26 21:37 18.11876 -88.09862 33839 ft 455 kts 218°
2026-04-26 21:38 18.06617 -88.13605 33840 ft 454 kts 218°
2026-04-26 21:38 18.01418 -88.17305 33838 ft 454 kts 219°
2026-04-26 21:39 17.96173 -88.21039 33833 ft 453 kts 218°
2026-04-26 21:39 17.90952 -88.24754 33828 ft 453 kts 218°
2026-04-26 21:40 17.85731 -88.28467 33830 ft 454 kts 219°
2026-04-26 21:40 17.80487 -88.32194 33832 ft 455 kts 218°
2026-04-26 21:41 17.75228 -88.35929 33834 ft 456 kts 218°
2026-04-26 21:41 17.69988 -88.39645 33831 ft 455 kts 219°
2026-04-26 21:42 17.64735 -88.43371 33832 ft 455 kts 219°
2026-04-26 21:42 17.59522 -88.47064 33819 ft 454 kts 218°
2026-04-26 21:43 17.48559 -88.54823 33812 ft 455 kts 219°
2026-04-26 21:43 17.11272 -88.81130 33828 ft 456 kts 218°
2026-04-26 21:44 17.06002 -88.84835 33887 ft 457 kts 218°
2026-04-26 21:44 17.00723 -88.88544 33896 ft 456 kts 218°
2026-04-26 21:45 16.57378 -89.18916 33867 ft 458 kts 218°
2026-04-26 21:45 16.49035 -89.24744 33878 ft 461 kts 218°
2026-04-26 21:46 16.43692 -89.28465 33869 ft 459 kts 218°
2026-04-26 21:46 16.38222 -89.32278 33867 ft 459 kts 218°
2026-04-26 21:47 16.13282 -89.49649 33847 ft 461 kts 218°
2026-04-26 21:47 16.07947 -89.53350 33828 ft 461 kts 218°
2026-04-26 21:48 16.02629 -89.57040 33819 ft 462 kts 218°
2026-04-26 21:48 15.99930 -89.58911 33557 ft 466 kts 218°
2026-04-26 21:48 15.97204 -89.60803 32864 ft 470 kts 218°
2026-04-26 21:49 15.94508 -89.62676 32157 ft 472 kts 218°
2026-04-26 21:49 15.91737 -89.64601 31449 ft 479 kts 218°
2026-04-26 21:49 15.88945 -89.66541 30787 ft 486 kts 217°
2026-04-26 21:49 15.86130 -89.68492 30126 ft 492 kts 217°
2026-04-26 21:50 15.83268 -89.70474 29460 ft 494 kts 217°
2026-04-26 21:50 15.81384 -89.71777 29025 ft 495 kts 217°
2026-04-26 21:50 15.77572 -89.74410 28148 ft 496 kts 217°
2026-04-26 21:50 15.74662 -89.76420 27485 ft 497 kts 217°
2026-04-26 21:51 15.71791 -89.78403 26831 ft 498 kts 217°
2026-04-26 21:51 15.68903 -89.80398 26177 ft 500 kts 216°
2026-04-26 21:51 15.65993 -89.82407 25525 ft 502 kts 216°
2026-04-26 21:51 15.63074 -89.84425 24873 ft 504 kts 216°
2026-04-26 21:52 15.60156 -89.86439 24221 ft 503 kts 216°
2026-04-26 21:52 15.57261 -89.88435 23558 ft 498 kts 216°
2026-04-26 21:52 15.54422 -89.90391 22894 ft 493 kts 215°
2026-04-26 21:52 15.51580 -89.92348 22233 ft 487 kts 215°
2026-04-26 21:53 15.48758 -89.94293 21576 ft 482 kts 215°
2026-04-26 21:53 15.45969 -89.96214 20922 ft 478 kts 215°
2026-04-26 21:53 15.43226 -89.98104 20290 ft 474 kts 215°
2026-04-26 21:53 15.40495 -89.99985 19649 ft 473 kts 215°
2026-04-26 21:54 15.37758 -90.01872 19026 ft 471 kts 215°
2026-04-26 21:54 15.35006 -90.03766 18398 ft 468 kts 215°
2026-04-26 21:54 15.32324 -90.05615 17779 ft 464 kts 215°
2026-04-26 21:54 15.29659 -90.07451 17159 ft 459 kts 215°
2026-04-26 21:55 15.27018 -90.09267 16567 ft 455 kts 215°
2026-04-26 21:55 15.24410 -90.11060 16120 ft 447 kts 215°
2026-04-26 21:55 15.21825 -90.12837 16019 ft 438 kts 215°
2026-04-26 21:55 15.19283 -90.14587 16032 ft 443 kts 215°
2026-04-26 21:56 15.16693 -90.16370 16040 ft 449 kts 215°
2026-04-26 21:56 15.14062 -90.18180 16039 ft 449 kts 215°
2026-04-26 21:56 15.11459 -90.19967 16050 ft 448 kts 215°
2026-04-26 21:56 15.08859 -90.21751 16069 ft 449 kts 215°
2026-04-26 21:57 15.06272 -90.23526 16053 ft 447 kts 215°
2026-04-26 21:57 15.03672 -90.25307 16041 ft 446 kts 214°
2026-04-26 21:57 15.01092 -90.27077 15724 ft 436 kts 214°
2026-04-26 21:57 14.98606 -90.28780 15109 ft 424 kts 214°
2026-04-26 21:58 14.96187 -90.30438 14329 ft 417 kts 214°
2026-04-26 21:58 14.93775 -90.32091 13525 ft 411 kts 214°
2026-04-26 21:58 14.91438 -90.33694 12731 ft 404 kts 214°
2026-04-26 21:58 14.89103 -90.35294 11926 ft 398 kts 214°
2026-04-26 21:59 14.86804 -90.36868 11145 ft 392 kts 213°
2026-04-26 21:59 14.84592 -90.38385 10657 ft 378 kts 213°
2026-04-26 21:59 14.82454 -90.39854 10414 ft 357 kts 213°
2026-04-26 21:59 14.80435 -90.41244 10205 ft 338 kts 213°
2026-04-26 22:00 14.78511 -90.42569 9985 ft 321 kts 213°
2026-04-26 22:00 14.76693 -90.43823 9760 ft 306 kts 213°
2026-04-26 22:00 14.74971 -90.45007 9492 ft 292 kts 213°
2026-04-26 22:00 14.73308 -90.46149 8986 ft 278 kts 213°
2026-04-26 22:01 14.71838 -90.47329 8457 ft 265 kts 225°
2026-04-26 22:01 14.70541 -90.48618 7906 ft 252 kts 218°
2026-04-26 22:01 14.69072 -90.49483 7361 ft 239 kts 199°
2026-04-26 22:01 14.67517 -90.49937 6865 ft 224 kts 194°
2026-04-26 22:02 14.66058 -90.50310 6464 ft 207 kts 195°
2026-04-26 22:02 14.65156 -90.50561 6169 ft 199 kts 197°
2026-04-26 22:02 14.63461 -90.51112 5753 ft 187 kts 198°
2026-04-26 22:02 14.62221 -90.51491 5585 ft 173 kts 198°
2026-04-26 22:03 14.61157 -90.51831 5421 ft 154 kts 198°
2026-04-26 22:03 14.60172 -90.52152 5131 ft 143 kts 198°
2026-04-26 22:03 14.59217 -90.52463 4939 ft 144 kts 198°
2026-04-26 22:03 14.58362 -90.52736 4899 ft 93 kts 197°
2026-04-26 22:04 14.58014 -90.52849 4889 ft 20 kts 198°
2026-04-26 22:04 14.57929 -90.52878 4890 ft 8 kts 199°
2026-04-26 22:04 14.57845 -90.52904 4890 ft 14 kts 202°
2026-04-26 22:04 14.57836 -90.52934 4889 ft 4 kts 308°
2026-04-26 22:05 14.57868 -90.52959 4888 ft 6 kts 341°
2026-04-26 22:05 14.57922 -90.52947 4888 ft 9 kts 19°
2026-04-26 22:05 14.57995 -90.52921 4888 ft 13 kts 18°
2026-04-26 22:05 14.58094 -90.52889 4888 ft 16 kts 18°
2026-04-26 22:06 14.58212 -90.52852 4890 ft 18 kts 17°
2026-04-26 22:06 14.58334 -90.52813 4895 ft 18 kts 17°
2026-04-26 22:06 14.58443 -90.52779 4902 ft 13 kts 17°
2026-04-26 22:06 14.58522 -90.52755 4905 ft 9 kts 17°
2026-04-26 22:07 14.58582 -90.52737 4907 ft 9 kts 17°
2026-04-26 22:07 14.58657 -90.52717 4910 ft 11 kts 354°
2026-04-26 22:07 14.58711 -90.52801 4911 ft 17 kts 314°
2026-04-26 22:07 14.58839 -90.52790 4915 ft 20 kts 17°
2026-04-26 22:08 14.58966 -90.52751 4919 ft 17 kts 17°
2026-04-26 22:08 14.59025 -90.52764 4921 ft 7 kts 282°
2026-04-26 22:08 14.59036 -90.52812 4921 ft 5 kts 287°
2026-04-26 22:08 14.59041 -90.52828 4922 ft 0 kts 287°